Regional Weather Roundup
Issued by NWS

Home | Current Version | Previous Version | Text Only | Print | Product List | Glossary Off
Versions: 1 2 3 4 5 6 7 8 9 10 11 12 13 14 15 16 17 18 19 20 21 22 23 24 25 26 27

000
ASUS45 KPSR 161810
RWRAZ

ARIZONA HOURLY REGIONAL WEATHER ROUNDUP
NATIONAL WEATHER SERVICE PHOENIX AZ
1100 AM MST MON OCT 16 2017

NOTE: FAIR INDICATES FEW OR NO CLOUDS BELOW 12,000 FEET WITH NO
SIGNIFICANT WEATHER AND/OR OBSTRUCTIONS TO VISIBILITY.

AZZ001>003-036-161900-
NORTHWEST ARIZONA

CITY           SKY/WX    TMP DP  RH WIND       PRES   REMARKS
BULLHEAD CITY  MOSUNNY   81   7   6 N24G32    30.15F
KINGMAN        SUNNY     74  13   9 VRB5      30.30F
6HR MIN TEMP:  42; 6HR MAX TEMP:  74;

$$

AZZ004>008-015-016-018-161900-
NORTH CENTRAL ARIZONA

CITY           SKY/WX    TMP DP  RH WIND       PRES   REMARKS
GRAND CANYON   SUNNY     71  12  10 SW7       30.47F
6HR MIN TEMP:  25; 6HR MAX TEMP:  71;

WILLIAMS       SUNNY     72  25  17 NW9       30.46F
PRESCOTT       SUNNY     71  14  11 VRB3      30.38F
6HR MIN TEMP:  42; 6HR MAX TEMP:  71;

FLAGSTAFF      SUNNY     68  24  19 MISG      30.49F
6HR MIN TEMP:  28; 6HR MAX TEMP:  70;

PAYSON           N/A     73  21  14 S7        30.40F
PAGE           SUNNY     57  15  19 NW5       30.43F
6HR MIN TEMP:  40; 6HR MAX TEMP:  57;

$$

AZZ009>014-017-161900-
NORTHEAST ARIZONA

CITY           SKY/WX    TMP DP  RH WIND       PRES   REMARKS
WINSLOW        SUNNY     62   2   9 CALM      30.44F
6HR MIN TEMP:  31; 6HR MAX TEMP:  62;

SAINT JOHNS    SUNNY     66  18  15 CALM      30.43F
6HR MIN TEMP:  29; 6HR MAX TEMP:  67;

WINDOW ROCK    SUNNY     69   9   9 VRB3      30.49F
6HR MIN TEMP:  22; 6HR MAX TEMP:  69;

SHOW LOW       SUNNY     73  19  13 VRB3      30.47F
$$

AZZ540-542>544-546-548-161900-
GREATER PHOENIX AREA

CITY           SKY/WX    TMP DP  RH WIND       PRES   REMARKS
PHOENIX        PTSUNNY   90  31  12 SE8       30.10F
6HR MIN TEMP:  69; 6HR MAX TEMP:  91;

BUCKEYE        SUNNY     90  75  62 E15G21    30.10F HX 100
GLENDALE       MOSUNNY   91  32  12 E9        30.12F
LUKE AFB       SUNNY     90  31  12 NE8       30.10F
6HR MIN TEMP:  64; 6HR MAX TEMP:  90;

DEER VALLEY    SUNNY     88  26  10 S6        30.13S
6HR MIN TEMP:  69; 6HR MAX TEMP:  88;

SCOTTSDALE     SUNNY     89  29  11 SE8G16    30.14F
6HR MIN TEMP:  69; 6HR MAX TEMP:  89;

MESA-FALCON    SUNNY     90  32  12 E3        30.13F
MESA-GATEWAY   MOSUNNY   90  34  13 SE8       30.13F
CHANDLER       SUNNY     88  34  14 NE6       30.12F
$$

AZZ539-553-161900-
SOUTHWEST MARICOPA COUNTY AND PINAL COUNTY

CITY           SKY/WX    TMP DP  RH WIND       PRES   REMARKS
CASA GRANDE    NOT AVBL
GILA BEND      MOSUNNY   90  28  11 E14       30.06F
$$

AZZ503-504-507>509-161900-
SOUTHEAST ARIZONA

CITY           SKY/WX    TMP DP  RH WIND       PRES   REMARKS
TUCSON         SUNNY     86  38  18 SE25G36   30.19F
6HR MIN TEMP:  71; 6HR MAX TEMP:  86;

DAVIS-MONTHAN  SUNNY     86  37  17 SE16G25   30.17F
RYAN FIELD     SUNNY     88  37  16 E20       30.17F
NOGALES        SUNNY     85  41  21 S8        30.25F
6HR MIN TEMP:  59; 6HR MAX TEMP:  85;

SIERRA VISTA   SUNNY     75  38  26 E7        30.35F
6HR MIN TEMP:  55; 6HR MAX TEMP:  76;

DOUGLAS        SUNNY     78  42  27 E15       30.32F
6HR MIN TEMP:  48; 6HR MAX TEMP:  78;

SAFFORD        SUNNY     75  35  23 S12       30.33F
6HR MIN TEMP:  56; 6HR MAX TEMP:  76;

$$

AZZ532-161900-
SOUTHWEST ARIZONA

CITY           SKY/WX    TMP DP  RH WIND       PRES   REMARKS
YUMA           MOSUNNY   88  14   6 N13       30.07F
6HR MIN TEMP:  70; 6HR MAX TEMP:  88;

$$

CAZ041-043-047-048-061-525>527-560>570-161900-
SOUTHERN CALIFORNIA

CITY           SKY/WX    TMP DP  RH WIND       PRES   REMARKS
DOWNTOWN L.A.  SUNNY     89  24   9 CALM      30.05F
6HR MIN TEMP:  66; 6HR MAX TEMP:  90;

L.A. AIRPORT   MOSUNNY   89  23   9 VRB5      30.06F
6HR MIN TEMP:  66; 6HR MAX TEMP:  89;

SAN DIEGO      MOSUNNY   84  45  25 NW9       30.06F
6HR MIN TEMP:  65; 6HR MAX TEMP:  86;

BURBANK        SUNNY     86  27  11 E3        30.09F
6HR MIN TEMP:  64; 6HR MAX TEMP:  86;

ONTARIO        MOSUNNY   84  20   9 CALM      30.10F
6HR MIN TEMP:  62; 6HR MAX TEMP:  84;

RIVERSIDE      MOSUNNY   90  17   7 E7        30.09F
6HR MIN TEMP:  59; 6HR MAX TEMP:  91;

PALM SPRINGS   SUNNY     93  14   5 CALM      30.11F
6HR MIN TEMP:  66; 6HR MAX TEMP:  94;

EL CENTRO NAS  MOSUNNY   88  12   6 VRB5      30.09F
6HR MIN TEMP:  58; 6HR MAX TEMP:  88;

IMPERIAL       SUNNY     87  30  13 VRB5      30.07F
6HR MIN TEMP:  58; 6HR MAX TEMP:  87;

BLYTHE         SUNNY     81   9   6 S5        30.12F
6HR MIN TEMP:  61; 6HR MAX TEMP:  81;

NEEDLES        MOSUNNY   81  15   8 N8        30.18F
6HR MIN TEMP:  63; 6HR MAX TEMP:  82;

$$

NVZ020-UTZ003-161900-
SOUTHERN NEVADA-UTAH

CITY           SKY/WX    TMP DP  RH WIND       PRES   REMARKS
LAS VEGAS      MOSUNNY   72  13  10 CALM      30.27F
6HR MIN TEMP:  54; 6HR MAX TEMP:  72;

SALT LAKE CITY PTSUNNY   56  24  29 CALM      30.43F
6HR MIN TEMP:  35; 6HR MAX TEMP:  56;

$$

NMZ009-TXZ055-161900-
NEW MEXICO-WEST TEXAS

CITY           SKY/WX    TMP DP  RH WIND       PRES   REMARKS
ALBUQUERQUE    SUNNY     60  26  27 SW3       30.49F
6HR MIN TEMP:  42; 6HR MAX TEMP:  60;

EL PASO        MOSUNNY   72  29  20 E5        30.42F
6HR MIN TEMP:  56; 6HR MAX TEMP:  72;

$$


........................KEY........................
SKY/WX - SKY CONDITION/WEATHER
TMP    - TEMPERATURE IN FAHRENHEIT
DP     - DEW POINT IN FAHRENHEIT
RH     - RELATIVE HUMIDITY IN PERCENT
WIND   - DIRECTION AND SPEED IN MILES PER HOUR (MPH)
VRB    - VARIABLE WIND DIRECTION
PRES   - MEAN SEA LEVEL PRESSURE IN INCHES OF MERCURY
         F - FALLING PRESSURE   R - RISING PRESSURE
         S - STEADY PRESSURE
VSB    - VISIBILITY IN MILES
HX     - HEAT INDEX IN FAHRENHEIT
WCI    - WIND CHILL INDEX IN FAHRENHEIT
TC     - TEMPERATURE IN CELSIUS WHICH IS ALSO KNOWN AS
         TEMPERATURE IN CENTIGRADE
AFB    - AIR FORCE BASE
         LUKE AFB IS LUKE AIR FORCE BASE
         DAVIS-MONTHAN IS DAVIS-MONTHAN AIR FORCE BASE
NAS    - NAVAL AIR STATION
         EL CENTRO NAS IS EL CENTRO NAVAL AIR STATION
N/A    - NOT AVAILABLE





USA.gov is the U.S. government's official web portal to all federal, state and local government web resources and services.